TimePDT,TemperatureF,Dew PointF,Humidity,Sea Level PressureIn,VisibilityMPH,Wind Direction,Wind SpeedMPH,Gust SpeedMPH,PrecipitationIn,Events,Conditions,WindDirDegrees,DateUTC
12:56 AM,55.0,32.0,42,29.94,10.0,SSW,3.5,-,N/A,,Clear,200,2013-07-28 07:56:00
1:56 AM,48.9,30.0,48,29.95,10.0,Calm,Calm,-,N/A,,Clear,0,2013-07-28 08:56:00
2:56 AM,46.0,30.0,54,29.95,10.0,Calm,Calm,-,N/A,,Clear,0,2013-07-28 09:56:00
3:56 AM,46.9,32.0,56,29.95,10.0,SSW,5.8,-,N/A,,Clear,200,2013-07-28 10:56:00
4:56 AM,45.0,33.1,63,29.95,10.0,SSE,4.6,-,N/A,,Clear,150,2013-07-28 11:56:00
5:56 AM,44.1,33.1,65,29.95,10.0,SSE,5.8,-,N/A,,Clear,160,2013-07-28 12:56:00
6:56 AM,51.1,35.1,54,29.95,10.0,SSE,4.6,-,N/A,,Clear,160,2013-07-28 13:56:00
7:56 AM,57.9,36.0,44,29.94,10.0,Calm,Calm,-,N/A,,Clear,0,2013-07-28 14:56:00
8:56 AM,64.9,33.1,31,29.94,10.0,Calm,Calm,-,N/A,,Clear,0,2013-07-28 15:56:00
9:56 AM,70.0,28.0,21,29.93,10.0,Calm,Calm,-,N/A,,Clear,0,2013-07-28 16:56:00
10:56 AM,73.0,21.0,14,29.92,10.0,Calm,Calm,-,N/A,,Clear,0,2013-07-28 17:56:00
11:56 AM,75.9,24.1,15,29.91,10.0,NNW,11.5,-,N/A,,Clear,330,2013-07-28 18:56:00
12:56 PM,79.0,25.0,14,29.90,10.0,Variable,5.8,-,N/A,,Clear,0,2013-07-28 19:56:00
1:56 PM,82.9,25.0,12,29.88,10.0,North,10.4,23.0,N/A,,Clear,10,2013-07-28 20:56:00
2:56 PM,82.0,26.1,13,29.88,10.0,Variable,4.6,16.1,N/A,,Clear,0,2013-07-28 21:56:00
3:56 PM,84.0,28.0,13,29.85,10.0,North,12.7,19.6,N/A,,Clear,350,2013-07-28 22:56:00
4:56 PM,82.9,30.0,15,29.85,10.0,Variable,4.6,20.7,N/A,,Clear,0,2013-07-28 23:56:00
5:56 PM,82.9,32.0,16,29.85,10.0,North,15.0,20.7,N/A,,Clear,350,2013-07-29 00:56:00
6:56 PM,79.0,30.9,17,29.86,10.0,North,12.7,-,N/A,,Clear,360,2013-07-29 01:56:00
7:56 PM,75.0,34.0,22,29.86,10.0,NNW,9.2,-,N/A,,Clear,340,2013-07-29 02:56:00
8:56 PM,71.1,39.0,31,29.87,10.0,NW,9.2,-,N/A,,Clear,310,2013-07-29 03:56:00
9:56 PM,64.0,39.0,40,29.89,10.0,Calm,Calm,-,N/A,,Clear,0,2013-07-29 04:56:00
10:56 PM,55.9,35.1,45,29.90,10.0,Calm,Calm,-,N/A,,Clear,0,2013-07-29 05:56:00
11:56 PM,54.0,35.1,49,29.90,10.0,Calm,Calm,-,N/A,,Clear,0,2013-07-29 06:56:00